DateTimeUTC,F1_A11,F1_S11,BsB_S11,BsG_S11,BsR_S11,BbsB_S11,BbsG_S11,BbsR_S11,BaB_A11,BaG_A11,BaR_A11,Tu_S11,T_S11,Uu_S11,U_S11,P_S11,T1_A11
2021-01-25T10:00:00Z,00000200,21000000,,,,,,,-000.14,-000.33,-000.16,14.7,22.2,,00.0,0646.5,30.8
2021-01-25T10:01:00Z,00000200,21000000,,,,,,,-000.34,-000.14,-000.31,14.7,22.3,,00.0,0646.6,30.8
2021-01-25T10:02:00Z,00000200,21000000,,,,,,,-000.12,0000.11,-000.02,14.7,22.3,,00.0,0646.6,30.8
2021-01-25T10:03:00Z,00000200,61000000,,,,,,,-000.15,-000.40,-000.38,14.7,22.3,,00.0,0646.6,30.8
2021-01-25T10:04:00Z,00000200,41000000,-000.03,-000.02,0000.39,-000.33,0000.07,0000.05,-000.27,-000.43,-000.18,15.1,22.1,,00.0,0647.5,30.8
2021-01-25T10:05:00Z,00000200,01000000,0000.80,0000.28,0000.50,0000.40,0000.28,0000.30,-000.08,0000.34,0000.56,15.2,22.1,,00.0,0647.6,30.8
2021-01-25T10:06:00Z,00000200,01000000,0000.04,0000.26,0000.28,0000.02,0000.21,0000.03,0000.42,0000.32,0000.08,15.2,22.1,,00.0,0647.5,30.8
2021-01-25T10:07:00Z,00000200,01000000,0000.30,0000.12,-000.13,-000.11,-000.06,0000.20,0000.26,0000.47,0000.52,15.2,22.1,,00.0,0647.5,30.8
2021-01-25T10:08:00Z,00000200,01000000,-000.08,0000.02,0000.15,0000.07,0000.19,0000.25,0000.28,0000.30,-000.04,15.3,22.0,,00.0,0647.5,30.8
2021-01-25T10:09:00Z,00000200,01000000,0000.17,0000.41,0000.28,0000.13,-000.13,0000.00,0000.09,-000.54,-000.11,15.2,22.0,,00.0,0647.5,30.8
2021-01-25T10:10:00Z,00000200,01000000,0000.38,0000.42,0000.36,0000.71,-000.04,0000.16,0000.43,0000.90,0000.13,15.2,22.0,,00.0,0647.4,30.8
2021-01-25T10:11:00Z,00000200,01000000,0000.30,0000.31,0000.37,0000.19,-000.14,0000.21,-000.05,-000.04,0000.32,15.2,22.0,,00.0,0647.4,30.8
2021-01-25T10:12:00Z,00000200,01000000,0000.16,0000.03,0000.34,0000.34,-000.11,0000.16,0000.46,-000.23,-000.21,15.2,22.0,,00.0,0647.4,30.8
2021-01-25T10:13:00Z,00000200,01000000,0000.08,0000.35,0000.16,0000.24,0000.15,0000.31,0000.16,0000.36,0000.32,15.2,22.0,,00.0,0647.4,30.8
2021-01-25T10:14:00Z,00000200,01000000,0000.17,-000.11,0000.21,0000.23,-000.21,0000.17,0000.16,-000.03,0000.04,15.2,22.0,,00.0,0647.4,30.8
2021-01-25T10:15:00Z,00000200,01000000,-000.17,0000.37,-000.02,0000.31,0000.14,0000.31,-000.02,0000.02,0000.03,15.2,22.0,,00.0,0647.4,30.8
2021-01-25T10:16:00Z,00000200,01000000,-000.34,0000.31,0000.19,0000.25,-000.24,0000.31,0000.40,0000.66,0000.64,15.2,22.0,,00.0,0647.4,30.8
2021-01-25T10:17:00Z,00000200,01000000,-000.12,-000.09,0000.19,-000.13,0000.05,-000.00,0000.69,0000.12,0000.23,15.2,22.0,,00.0,0647.3,30.8
2021-01-25T10:18:00Z,00000200,01000000,0000.16,0000.24,0000.21,0001.00,0000.13,0000.10,-000.26,0000.54,-000.23,15.2,22.0,,00.0,0647.3,30.8
2021-01-25T10:19:00Z,00000200,01000000,-000.00,0000.15,0000.04,0000.22,0000.08,0000.01,0001.33,0000.38,0000.57,15.3,22.0,,00.0,0647.3,30.8
2021-01-25T10:20:00Z,00000200,01000000,0000.41,0000.00,0000.07,0000.53,-000.06,0000.16,-000.08,0000.59,0000.42,15.3,22.0,,00.0,0647.3,30.8
2021-01-25T10:21:00Z,00000200,01000000,-000.06,0000.31,0000.31,0000.10,0000.06,0000.33,0000.12,0000.28,0000.24,15.3,22.0,,00.0,0647.4,30.8
2021-01-25T10:22:00Z,00000200,01000000,0000.03,0000.09,0000.29,-000.29,0000.02,0000.37,0000.36,-000.00,-000.07,15.4,22.1,,00.0,0647.4,30.8
2021-01-25T10:23:00Z,00000200,01000000,0000.77,0000.11,0000.22,0000.50,-000.06,0000.21,-000.06,0000.14,0000.01,15.4,22.1,,00.0,0647.4,30.8
2021-01-25T10:24:00Z,00000200,01000000,0000.37,0000.08,-000.01,-000.16,-000.12,0000.07,-000.05,-000.15,-000.26,15.4,22.1,,00.0,0647.4,30.8
2021-01-25T10:25:00Z,00000200,01000000,0000.04,0000.08,0000.19,0000.34,-000.04,0000.27,-000.20,-000.07,0000.05,15.4,22.1,,00.0,0647.3,30.8
2021-01-25T10:26:00Z,00000200,01000000,0000.14,0000.47,0000.40,0000.61,0000.08,0000.02,-000.05,-000.45,0000.06,15.3,22.0,,00.0,0647.3,30.8
2021-01-25T10:27:00Z,00000200,01000000,0000.32,0000.30,0000.07,0000.08,0000.11,0000.13,0000.62,0000.14,-000.24,15.3,22.0,,00.0,0647.3,30.8
2021-01-25T10:28:00Z,00000200,01000000,-000.02,0000.23,0000.52,0000.03,0000.14,0000.24,0000.07,0000.64,0000.36,15.3,22.0,,00.0,0647.3,30.8
2021-01-25T10:29:00Z,00000200,01000000,0000.20,0000.18,0000.24,0000.55,0000.11,0000.09,0000.07,0000.09,0000.45,15.3,22.0,,00.0,0647.2,30.8
2021-01-25T10:30:00Z,00000200,01000000,0000.34,0000.28,0000.32,0000.34,-000.03,0000.37,0000.59,0000.31,0000.21,15.3,22.0,,00.0,0647.3,30.8
2021-01-25T10:31:00Z,00000200,01000000,-000.28,-000.01,0000.20,0000.26,0000.36,0000.19,0000.17,0000.19,0000.17,15.3,22.0,,00.0,0647.3,30.8
2021-01-25T10:32:00Z,00000200,01000000,0000.86,0000.24,0000.13,0000.33,0000.07,0000.28,-000.36,0000.12,0000.01,15.3,22.0,,00.0,0647.3,30.8
2021-01-25T10:33:00Z,00000200,01000000,0000.04,0000.04,0000.31,0000.12,-000.08,0000.02,0000.17,-000.02,-000.04,15.3,22.0,,00.0,0647.3,30.8
2021-01-25T10:34:00Z,00000200,01000000,0000.26,0000.22,0000.12,0000.09,0000.01,0000.11,0000.40,0000.27,0000.13,15.4,22.0,,00.0,0647.3,30.8
2021-01-25T10:35:00Z,00000200,01000000,0000.34,0000.03,0000.30,0000.53,0000.03,0000.25,-000.17,-000.03,-000.02,15.4,22.1,,00.0,0647.3,30.8
2021-01-25T10:36:00Z,00000200,01000000,0000.28,0000.45,0000.01,0000.01,-000.09,-000.08,0000.17,0000.25,0000.17,15.4,22.1,,00.0,0647.3,30.8
2021-01-25T10:37:00Z,00000200,01000000,0000.27,-000.04,0000.18,0000.53,-000.03,0000.09,0000.27,0000.03,-000.02,15.4,22.1,,00.0,0647.3,30.8
2021-01-25T10:38:00Z,00000200,01000000,0000.26,0000.36,0000.24,0000.51,-000.10,0000.22,0000.08,0000.31,0000.00,15.4,22.1,,00.0,0647.3,30.8
2021-01-25T10:39:00Z,00000200,01000000,0000.49,0000.18,-000.09,0000.19,-000.04,0000.15,0000.52,0000.27,0000.37,15.4,22.1,,00.0,0647.3,30.8
2021-01-25T10:40:00Z,00000200,01000000,-000.05,0000.34,0000.35,0000.26,0000.06,0000.24,-000.30,0000.16,0000.13,15.3,22.0,,00.0,0647.3,30.8
2021-01-25T10:41:00Z,00000200,01000000,-000.29,0000.19,0000.31,0000.86,0000.07,0000.31,0000.38,-000.77,-000.19,15.3,22.0,,00.0,0647.4,30.8
2021-01-25T10:42:00Z,00000200,01000000,-000.12,0000.17,0000.09,0000.28,0000.12,0000.07,-000.12,0000.33,-000.02,15.2,22.0,,00.0,0647.5,30.8
2021-01-25T10:43:00Z,00000200,01000000,0001.30,0000.29,0000.33,0000.16,0000.06,0000.16,0000.06,0000.41,-000.05,15.2,22.0,,00.0,0647.5,30.8
2021-01-25T10:44:00Z,00000200,01000000,0000.71,0000.19,0000.23,0000.02,-000.16,0000.28,-000.07,-000.18,0000.29,15.2,22.0,,00.0,0647.5,30.8
2021-01-25T10:45:00Z,00000200,01000000,0000.13,0000.13,0000.04,0000.20,0000.18,0000.21,0000.32,0000.40,0000.32,15.2,22.0,,00.0,0647.6,30.8
2021-01-25T10:46:00Z,00000200,01000000,0000.07,0000.13,0000.17,-000.07,0000.04,-000.02,0000.29,-000.02,-000.33,15.2,22.0,,00.0,0647.5,30.8
2021-01-25T10:47:00Z,00000200,01000000,0000.16,0000.30,0000.20,0000.49,-000.05,0000.05,0000.25,0000.24,0000.36,15.3,22.0,,00.0,0647.6,30.8
2021-01-25T10:48:00Z,00000200,01000000,0000.03,0000.25,0000.11,0000.42,0000.13,0000.33,-000.23,0000.02,0000.07,15.3,22.0,,00.0,0647.6,30.8
2021-01-25T10:49:00Z,00000200,01000000,-000.13,0000.12,0000.27,0000.25,0000.12,0000.04,0000.12,0000.26,0000.08,15.3,22.0,,00.0,0647.7,30.8
2021-01-25T10:50:00Z,00000200,01000000,0000.03,-000.09,0000.22,0000.11,0000.37,0000.26,-000.69,-000.76,-000.22,15.3,22.0,,00.0,0648.0,30.8
2021-01-25T10:51:00Z,00000200,01000000,0000.16,0000.40,0000.19,0000.75,0000.08,0000.22,-000.34,-000.19,-000.15,15.4,22.0,,00.0,0647.8,30.8
2021-01-25T10:52:00Z,00000200,01000000,-000.40,0000.13,0000.04,-000.39,0000.09,0000.10,0000.25,0000.07,-000.03,15.4,22.0,,00.0,0647.7,30.8
2021-01-25T10:53:00Z,00000200,01000000,0000.39,-000.19,0000.32,0000.54,0000.10,0000.28,0000.71,0000.21,0000.25,15.4,22.1,,00.0,0647.6,30.8
2021-01-25T10:54:00Z,00000200,01000000,-000.20,-000.01,0000.07,0000.43,-000.03,0000.06,0000.26,0000.16,0000.28,15.4,22.1,,00.0,0647.7,30.8
2021-01-25T10:55:00Z,00000200,01000000,-000.14,-000.01,0000.19,0000.14,0000.18,0000.14,-000.30,-000.03,-000.10,15.4,22.1,,00.0,0647.9,30.8
2021-01-25T10:56:00Z,00000200,01000000,-000.37,0000.25,0000.12,-000.14,0000.27,0000.11,-000.58,-000.66,-000.60,15.4,22.1,,00.0,0647.9,30.8
2021-01-25T10:57:00Z,00000200,41000000,,,,,,,0001.34,0001.63,0001.43,15.4,22.1,,00.0,0647.6,30.8
2021-01-25T10:58:00Z,00000200,61000000,,,,,,,0000.10,-000.07,-000.51,15.0,22.2,,00.0,0646.7,30.8
2021-01-25T10:59:00Z,00000200,21000000,,,,,,,0000.06,0000.02,-000.03,15.0,22.3,,00.0,0646.8,30.8
